User: anonymous   Login
Location: Unspecified
(0.0000°N, 0.0000°E)
Time: 08:04:18
(UTC+00:00)
Language:

AO-73 - Orbit

View from above orbital plane
View from above orbital plane
View from above satellite
View from above satellite

Ground track
Ground track

The orbit data is extracted from the following two-line orbital elements,

1 39444U 13066AE  18347.73300986  .00000223  00000-0  33997-4 0  9991
2 39444  97.5732   8.3940 0056700 281.8350  77.6509 14.81826599272242
Epoch (UTC): 13 December 2018 17:35:32
Eccentricity: 0.0056700
inclination: 97.5732°
perigee height: 584 km
apogee height: 663 km
right ascension of ascending node: 8.3940°
argument of perigee: 281.8350°
revolutions per day: 14.81826599
mean anomaly at epoch: 77.6509°
orbit number at epoch: 27224

The dashed part of the orbit path shows where the satellite is in the earth's shadow,  

DLR